Location: Ajisawe
(8.4333°N, 4.3833°E)
Time: 01:08:49
(UTC+00:00)

Courier 1B Rocket - Pass Details

Date: 27 April 2021
Orbit: 920 x 1202 km, 28.3° (Epoch: 13 May)

Event Time Altitude Azimuth Distance (km) Brightness Sun altitude
Rises 23:06:08 0° 297° (WNW) 3,798 - -65.9°
Reaches altitude 10° 23:08:46 10° 296° (WNW) 2,885 - -66.1°
Maximum altitude 23:15:55 81° 210° (SSW) 1,135 - -66.6°
Drops below altitude 10° 23:23:34 10° 123° (ESE) 3,077 - -67.1°
Sets 23:26:28 0° 122° (ESE) 4,064 - -67.2°
